Location: Nordegg
(52.4712°N, 116.0743°W)
Time: 13:48:50
(UTC+00:00)

Envisat - Pass Details

Date: 04 December 2021
Orbit: 764 x 766 km, 98.2° (Epoch: 26 January)

Event Time Altitude Azimuth Distance (km) Brightness Sun altitude
Rises 13:49:57 0° 10° (N) 3,248 6.2 -15.3°
Reaches altitude 10° 13:52:23 10° 3° (N) 2,317 5.3 -14.9°
Maximum altitude 13:57:06 40° 296° (WNW) 1,129 3.4 -14.2°
Drops below altitude 10° 14:01:48 10° 228° (SW) 2,302 5.2 -13.6°
Sets 14:04:13 0° 221° (SW) 3,224 6.0 -13.2°
